Home   Weather   Helsinki   Past weeks

Flag for Finland Past Weather in Helsinki, Finland — Yesterday and Last 2 Weeks

Now
63 °F

Partly sunny.


Feels Like: 63 °F
Forecast: 58 / 67 °F
Wind: 9 mph from Northeast

Location: Helsinki-Vantaa

Current Time: Jul 26, 2017 at 9:55:34 am

Latest Report: Jul 26, 2017 at 9:20 am


Visibility: N/A

Pressure: 29.74 "Hg

Humidity: 83%

Dew Point: 57 °F

Location of HelsinkiLocation

Past Weather in Helsinki — Graph

°F

Helsinki Temperature Yesterday

Maximum temperature yesterday: 66 °F (at 2:20 pm)
Minimum temperature yesterday: 55 °F (at 2:20 am)
Average temperature yesterday: 61 °F

High & Low Weather Summary for the Past Weeks

 TemperatureHumidityPressure
High75 °F (Jul 16, 4:20 pm)100% (Jul 11, 6:20 pm)30.12 "Hg (Jul 11, 6:20 pm)
Low41 °F (Jul 15, 4:50 am)31% (Jul 16, 1:20 pm)29.50 "Hg (Jul 12, 8:50 am)
Average59 °F75%29.85 "Hg
* Reported Jul 11 8:20 am — Jul 26 8:50 am, Helsinki. Weather by CustomWeather, © 2017

Note: Actual official high and low records may vary slightly from our data, if they occured in-between our weather recording intervals... More about our weather records

Advertising

Helsinki Weather History for the Previous 24 Hours

Scroll right to see more
 ConditionsComfort  
Time TempWeatherWind HumidityBarometerVisibility
8:50 am
Wed, Jul 26
61 °FScattered clouds.9 mph88%29.74 "HgN/A
8:20 am57 °FScattered clouds.9 mph100%29.74 "HgN/A
7:50 am55 °FPartly sunny.9 mph100%29.77 "HgN/A
7:20 am55 °FFog.7 mph94%29.77 "Hg1 mi
6:50 am54 °FFog.7 mph100%29.77 "Hg1 mi
6:20 am54 °FFog.6 mph100%29.77 "Hg1 mi
5:50 am54 °FFog.6 mph94%29.77 "Hg0 mi
5:20 am52 °FFog.8 mph100%29.77 "Hg0 mi
4:50 am52 °FFog.2 mph100%29.77 "Hg1 mi
4:20 am52 °FFog.6 mph100%29.77 "Hg0 mi
3:50 am54 °FFog.5 mph94%29.77 "Hg0 mi
3:20 am54 °FPassing clouds.5 mph94%29.77 "HgN/A
2:50 am54 °FPassing clouds.5 mph100%29.80 "HgN/A
2:20 am52 °FClear.5 mph100%29.80 "Hg10 mi
1:50 am52 °FClear.2 mph94%29.80 "Hg10 mi
1:20 am54 °FClear.5 mph94%29.80 "Hg10 mi
12:50 am52 °FClear.2 mph94%29.80 "Hg10 mi
12:20 am57 °FClear.3 mph88%29.80 "Hg10 mi
11:50 pm
Tue, Jul 25
55 °FClear.3 mph94%29.80 "Hg10 mi
11:20 pm57 °FClear.2 mph88%29.80 "Hg10 mi
10:50 pm59 °FScattered showers. Partly cloudy.5 mph82%29.80 "HgN/A
10:20 pm61 °FScattered showers. Passing clouds.8 mph83%29.80 "HgN/A
9:50 pm61 °FScattered showers. Partly sunny.5 mph77%29.80 "HgN/A
9:20 pm63 °FScattered showers. Partly sunny.3 mph73%29.80 "HgN/A
8:50 pm63 °FScattered showers. Partly sunny.5 mph73%29.80 "HgN/A
8:20 pm63 °FScattered showers. Partly sunny.6 mph73%29.80 "HgN/A
7:50 pm63 °FSprinkles. Broken clouds.8 mph77%29.80 "HgN/A
7:20 pm64 °FScattered showers. Broken clouds.5 mph73%29.80 "HgN/A
6:50 pm66 °FScattered showers. Scattered clouds.2 mph73%29.80 "HgN/A
6:20 pm64 °FPartly sunny.5 mph78%29.80 "HgN/A
5:50 pm64 °FBroken clouds.5 mph78%29.80 "HgN/A
5:20 pm63 °FScattered showers. Broken clouds.6 mph83%29.80 "HgN/A
4:50 pm63 °FScattered showers. Broken clouds.7 mph77%29.83 "HgN/A
4:20 pm63 °FScattered showers. Broken clouds.8 mph77%29.83 "HgN/A
3:50 pm63 °FSprinkles. Partly sunny.9 mph77%29.83 "HgN/A
3:20 pm66 °FScattered showers. Broken clouds.8 mph68%29.80 "HgN/A
2:50 pm64 °FScattered showers. Broken clouds.9 mph73%29.80 "HgN/A
2:20 pm66 °FScattered showers. Broken clouds.9 mph68%29.83 "HgN/A
1:50 pm64 °FScattered showers. Broken clouds.8 mph73%29.83 "HgN/A
1:20 pm64 °FScattered showers. Broken clouds.10 mph73%29.83 "HgN/A
12:50 pm64 °FScattered showers. Broken clouds.7 mph68%29.83 "HgN/A
12:20 pm64 °FScattered showers. Broken clouds.6 mph73%29.83 "HgN/A
11:50 am64 °FBroken clouds.7 mph73%29.83 "HgN/A
11:20 am63 °FBroken clouds.8 mph77%29.83 "HgN/A
10:50 am64 °FBroken clouds.6 mph73%29.83 "HgN/A
10:20 am63 °FPartly sunny.7 mph77%29.83 "HgN/A
9:50 am63 °FBroken clouds.6 mph77%29.83 "HgN/A
9:20 am61 °FPartly sunny.7 mph83%29.83 "HgN/A
Weather by CustomWeather, © 2017

See weather overviewHow to use our weather pages